Home > Weather > Palestine > Past weeks

Flag for USA Past Weather in Palestine, Texas, USA — Yesterday and Last 2 Weeks

Now
83 °F

Sunny.


Feels Like: 90 °F
Forecast: 73 / 84 °F
Wind: 8 mph from Northeast

Location: Palestine Municipal Airport

Current Time: Aug 28, 2016 at 2:02:05 PM

Latest Report: Aug 28, 2016 at 1:15 PM


Visibility: 10 mi

Pressure: 30.05 "Hg

Humidity: 73%

Dew Point: 74 °F

Location of PalestineLocation

Past Weather in Palestine — Graph

°F

Palestine Temperature Yesterday

Maximum temperature yesterday: 89 °F (at 5:15 PM)
Minimum temperature yesterday: 73 °F (at 5:35 AM)
Average temperature yesterday: 79 °F

High & Low Weather Summary for the Past Weeks

 TemperatureHumidityPressure
High92 °F (Aug 14, 4:15 PM)100% (Aug 14, 2:55 AM)30.20 "Hg (Aug 14, 2:55 AM)
Low70 °F (Aug 21, 4:15 AM)51% (Aug 25, 6:35 PM)29.78 "Hg (Aug 13, 5:35 PM)
Average78 °F90%30.03 "Hg
* Reported Aug 13 12:15 PM — Aug 28 12:55 PM, Palestine, Weather by CustomWeather, © 2016

Note: Actual official high and low records may vary slightly from our data, if they occured in-between our weather recording intervals... More about our weather records

Advertising

Palestine Weather History for the Previous 24 Hours

Scroll right to see more
 ConditionsComfort  
Time TempWeatherWind HumidityBarometerVisibility
12:55 PM
Sun, Aug 28
83 °FSunny.9 mph74%30.06 "Hg10 mi
12:35 PM82 °FSunny.5 mph78%30.07 "Hg10 mi
12:15 PM81 °FSunny.8 mph79%30.08 "Hg10 mi
11:55 AM82 °FScattered clouds.10 mph75%30.08 "Hg10 mi
11:35 AM81 °FBroken clouds.9 mph78%30.08 "Hg10 mi
11:15 AM81 °FScattered clouds.10 mph78%30.09 "Hg10 mi
10:55 AM79 °FSunny.7 mph84%30.08 "Hg10 mi
10:35 AM78 °FSunny.10 mph85%30.08 "Hg10 mi
10:15 AM77 °FSunny.8 mph87%30.07 "Hg10 mi
9:55 AM77 °FScattered clouds.9 mph89%30.07 "Hg10 mi
9:35 AM75 °FBroken clouds.8 mph93%30.07 "Hg10 mi
9:15 AM74 °FMostly cloudy.8 mph94%30.07 "Hg10 mi
8:55 AM74 °FOvercast.7 mph95%30.07 "Hg10 mi
8:35 AM73 °FMostly cloudy.7 mph95%30.07 "Hg10 mi
8:15 AM73 °FMore clouds than sun.7 mph97%30.06 "Hg10 mi
7:55 AM73 °FMostly cloudy.8 mph97%30.06 "Hg10 mi
7:35 AM73 °FOvercast.8 mph97%30.05 "Hg10 mi
7:15 AM73 °FMostly cloudy.5 mph98%30.05 "Hg10 mi
6:55 AM73 °FLight rain. Passing clouds.5 mph96%30.04 "Hg10 mi
6:35 AM73 °FPartly cloudy.No wind94%30.04 "Hg10 mi
6:15 AM73 °FPassing clouds.5 mph95%30.03 "Hg10 mi
5:55 AM73 °FOvercast.3 mph97%30.03 "Hg10 mi
5:35 AM72 °FPassing clouds.No wind100%30.02 "Hg10 mi
5:15 AM72 °FPassing clouds.3 mph100%30.02 "Hg10 mi
4:55 AM72 °FPartly cloudy.No wind100%30.02 "Hg7 mi
4:35 AM72 °FPassing clouds.No wind100%30.02 "Hg10 mi
4:15 AM72 °FClear.No wind100%30.02 "Hg7 mi
3:55 AM72 °FClear.No wind100%30.02 "Hg10 mi
3:35 AM72 °FClear.3 mph98%30.01 "Hg10 mi
3:15 AM72 °FClear.No wind98%30.01 "Hg10 mi
2:55 AM72 °FClear.No wind97%30.01 "Hg10 mi
2:35 AM74 °FClear.No wind94%30.02 "Hg10 mi
1:55 AM74 °FClear.No wind96%30.02 "Hg10 mi
1:35 AM74 °FClear.No wind94%30.03 "Hg10 mi
1:15 AM74 °FClear.No wind93%30.03 "Hg10 mi
12:55 AM75 °FClear.No wind91%30.03 "Hg10 mi
12:35 AM75 °FClear.3 mph90%30.03 "Hg10 mi
12:15 AM75 °FClear.3 mph90%30.03 "Hg10 mi
11:55 PM
Sat, Aug 27
75 °FClear.5 mph91%30.03 "Hg10 mi
11:35 PM76 °FClear.6 mph89%30.03 "Hg10 mi
10:55 PM77 °FClear.7 mph87%30.04 "Hg10 mi
10:35 PM77 °FClear.7 mph85%30.04 "Hg10 mi
10:15 PM77 °FClear.7 mph84%30.04 "Hg10 mi
9:55 PM77 °FPassing clouds.6 mph85%30.03 "Hg10 mi
9:35 PM77 °FPassing clouds.6 mph88%30.02 "Hg10 mi
9:15 PM77 °FPassing clouds.3 mph88%30.01 "Hg10 mi
8:55 PM78 °FClear.3 mph87%30.00 "Hg10 mi
8:35 PM78 °FSunny.3 mph92%30.00 "Hg10 mi
8:15 PM79 °FSunny.3 mph89%29.99 "Hg10 mi
7:55 PM80 °FSunny.No wind86%29.99 "Hg10 mi
7:35 PM80 °FSunny.6 mph86%29.98 "Hg10 mi
7:15 PM82 °FSunny.3 mph83%29.97 "Hg10 mi
6:55 PM83 °FSunny.No wind79%29.97 "Hg10 mi
6:35 PM84 °FSunny.5 mph77%29.95 "Hg10 mi
6:15 PM82 °FScattered clouds.No wind84%29.95 "Hg10 mi
5:55 PM83 °FLight rain. Scattered clouds.7 mph74%29.95 "Hg10 mi
5:35 PM87 °FPartly sunny.5 mph65%29.95 "Hg10 mi
5:15 PM89 °FScattered clouds.5 mph59%29.95 "Hg10 mi
4:55 PM89 °FSunny.5 mph58%29.95 "Hg10 mi
4:35 PM89 °FScattered clouds.6 mph60%29.95 "Hg10 mi
4:15 PM88 °FScattered clouds.No wind61%29.95 "Hg10 mi
3:55 PM88 °FSunny.No wind61%29.96 "Hg10 mi
3:35 PM87 °FSunny.No wind63%29.96 "Hg10 mi
3:15 PM87 °FSunny.3 mph69%29.97 "Hg10 mi
2:55 PM86 °FSunny.5 mph66%29.99 "Hg10 mi
2:35 PM86 °FSunny.No wind65%30.00 "Hg10 mi
2:15 PM85 °FSunny.No wind69%30.00 "Hg10 mi
Weather by CustomWeather, © 2016

See weather overviewHow to use our weather pages